Overview Statistics Trail Chart Weather Telemetry Raw packets
 

This is the latest recevied weather packets stored in our database for station/object PA0HHN. If no packets are shown the sender has not sent any weather packets the latest 10 day(s).

<< 8 9 10 11 12 13 14 >>
Time Temp. Humidity Pressure Rain* Wind** Luminosity Snow
1788400802 17.22° C 84% 1009 hPa - - - -
1788399902 17.22° C 85% 1009.2 hPa - - - -
1788399002 17.22° C 86% 1009.1 hPa - - - -
1788398100 17.22° C 87% 1009.5 hPa - - - -
1788397202 17.22° C 90% 1009.9 hPa - - - -
1788396302 16.11° C 93% 1009.9 hPa - - - -
1788395400 16.11° C 94% 1010 hPa - - - -
1788394506 16.11° C 94% 1010.2 hPa - - - -
1788393600 17.22° C 93% 1010.4 hPa - - - -
1788392702 17.22° C 91% 1010.6 hPa - - - -
1788391802 17.22° C 90% 1010.9 hPa - - - -
1788390902 17.22° C 89% 1011 hPa - - - -
1788390001 17.22° C 88% 1011 hPa - - - -
1788389100 17.22° C 88% 1011.3 hPa - - - -
1788388202 17.22° C 86% 1011.5 hPa - - - -
1788387302 17.78° C 84% 1011.5 hPa - - - -
1788386400 17.78° C 85% 1011.6 hPa - - - -
1788385502 17.78° C 84% 1011.4 hPa - - - -
1788384601 17.78° C 85% 1011.6 hPa - - - -
1788383702 17.78° C 85% 1011.7 hPa - - - -
1788382802 17.78° C 86% 1011.7 hPa - - - -
1788381902 17.78° C 87% 1011.6 hPa - - - -
1788381000 17.78° C 87% 1011.8 hPa - - - -
1788380100 17.22° C 89% 1011.8 hPa - - - -
1788379219 17.22° C 89% 1011.8 hPa - - - -

* Rain since midnight (hover to see other rain measurements)
** Current wind speed in m/s (hover to see current wind gust speed)